Tracking 19720 objects as of 26-Jun-2019
HD Live streaming from Space Station
objects crossing your sky now

COSMOS 535

Track COSMOS 535 now!
10-day predictions
COSMOS 535 is classified as:


NORAD ID: 6270
Int'l Code: 1972-087H
Perigee: 1,390.4 km
Apogee: 1,475.6 km
Inclination: 74.0 °
Period: 114.3 minutes
Semi major axis: 7803 km
RCS: 0.7336 m2 (medium)
Launch date: November 1, 1972
Source: Commonwealth of Independent States (former USSR) (CIS)
Launch site: PLESETSK MISSILE AND SPACE COMPLEX (PKMTR)
aabbcc
Your satellite tracking list
Your tracking list is empty




NASA's NSSDC Master Catalog

Two Line Element Set (TLE):
1  6270U 72087H   19175.27867616 -.00000021 +00000-0 -28507-4 0  9996
2  6270 074.0349 099.1524 0054591 322.7598 151.0645 12.59304756144175
Source of the keplerian elements: AFSPC